Regional Weather Roundup
Issued by NWS Sioux Falls, SD

Home | Current Version | Previous Version | Text Only | Print | Product List | Glossary On
Versions: 1 2 3 4 5 6 7 8 9 10 11 12 13 14 15 16 17 18 19 20 21 22 23 24 25 26 27 28 29 30 31 32 33 34 35 36 37 38 39 40 41 42 43 44 45 46 47 48 49 50
000
ASUS43 KFSD 281502
RWRFSD

WEATHER ROUNDUP FOR SE SOUTH DAKOTA/SW MINNESOTA/NW IOWA
NATIONAL WEATHER SERVICE SIOUX FALLS SD
1000 AM CDT TUE MAR 28 2017

NOTE: "FAIR" INDICATES FEW OR NO CLOUDS BELOW 12,000 FEET WITH NO
SIGNIFICANT WEATHER AND OR OBSTRUCTIONS TO VISIBILITY.


SDZ038>040-050-052>070-281600-
SOUTHEAST SOUTH DAKOTA

CITY           SKY/WX    TMP DP  RH WIND       PRES   REMARKS
BROOKINGS      MOSUNNY   46  39  76 CALM      30.12R
CHAMBERLAIN    CLOUDY    44  42  92 E6        30.10R
HURON          PTSUNNY   43  40  89 SE5       30.13R
MADISON        FAIR      41  41 100 CALM      30.13R
MITCHELL       CLOUDY    46  41  82 S7        30.13R
SIOUX FALLS    PTSUNNY   47  41  80 CALM      30.13R
WINNER         LGT RAIN  47  45  93 SE8       30.07R FOG
YANKTON        SUNNY     45  39  81 CALM      30.11S
$$

MNZ071-072-080-081-089-090-097-098-281600-
SOUTHWEST MINNESOTA

CITY           SKY/WX    TMP DP  RH WIND       PRES   REMARKS
FAIRMONT       SUNNY     45  40  82 E6        30.13S
JACKSON        SUNNY     45  39  81 CALM      30.12S
LUVERNE        SUNNY     43  37  81 CALM      30.13R
MARSHALL       SUNNY     47  39  74 N5        30.14R
MONTEVIDEO     SUNNY     52  39  62 CALM      30.15R
PIPESTONE      SUNNY     50  37  62 NE5       30.11R
REDWOOD FALLS  SUNNY     48  36  63 NE5       30.13R
TRACY          SUNNY     48  41  75 CALM      30.13R
WINDOM         SUNNY     48  39  71 NE3       30.12R
WORTHINGTON    SUNNY     45  40  82 NE7       30.13R
$$

IAZ001>003-012>014-020>022-031-032-NEZ013-014-SDZ071-281600-
NORTHWEST IOWA

CITY           SKY/WX    TMP DP  RH WIND       PRES   REMARKS
CHEROKEE       MOSUNNY   42  40  94 NE3       30.12S
DENISON        PTSUNNY   45  41  87 N6        30.12S
ESTHERVILLE    SUNNY     44  41  89 E7        30.12R
LE MARS        MOSUNNY   45  41  87 CALM      30.13S
ORANGE CITY    SUNNY     45  43  93 E3        30.12S
SHELDON        SUNNY     46  41  81 CALM      30.11S
SIOUX CITY     SUNNY     43  40  89 CALM      30.13R
SPENCER        SUNNY     48  41  76 NE5       30.12R
STORM LAKE     MOSUNNY   43  41  93 NE9       30.11R
$$

ABBREVIATIONS USED IN REMARKS
   TC - TEMPERATURE IN CELSIUS
  WCI - WIND CHILL INDEX
   HX - HEAT INDEX
  VSB - VISIBILITY




USA.gov is the U.S. government's official web portal to all federal, state and local government web resources and services.